Погода в Охотине

Россия / Ярославская область     57°47′55″N   38°30′10″E
темп.,
°C
ветер,
м/с
пор.,
м/с
влажн.,
%
обл.,
%
осадки,
мм/ч
давл.,
гПа
погр.,
м
23 сентября, чт
чт2300:00+6вюв3898100 0.1 1016444
03:00+6вюв369595 0.1 1016340
06:00+6в3798100 0.0 1016278
09:00+8в3896100 0.0 1015436
12:00+9в3896100 0.3 1015523
15:00+9в3694100 0.2 1013449
18:00+8вюв2798100 2.7 1011411
21:00+8ююв3797100 2.9 1010403
24 сентября, пт
пт2400:00+7юв399872 0.0 1009334
03:00+7ююв3795100 0.0 1008371
06:00+6юв399697 0.0 1007320
09:00+8юв41088100 0.0 1006692
12:00+9ююв6983100 0.3 10061265
15:00+9ююв5877100 0.4 1005968
18:00+8юв41081100 0.1 1005785
21:00+8юв41185100 0.1 1006622
25 сентября, сб
сб2500:00+6юв3109312 0.0 1006324
03:00+5вюв3793100 0.0 1004177
06:00+7юв3985100 0.0 1007373
09:00+8юв3885100 0.0 1007427
12:00+9ююв3780100 0.0 1008476
15:00+10ю3577100 0.0 1008613
18:00+8ю2386100 0.0 100988
21:00+8ююв2490100 0.0 100990
26 сентября, вс
вс2600:00+8ююз119199 0.2 100819
03:00+6з009399 0.2 100910
06:00+7вюв1189100 0.1 100913
09:00+8в1191100 0.4 101169
12:00+9ссв018480 0.1 1012227
15:00+11с237395 0.5 1014717
18:00+8с269089 0.6 1016151
21:00+7ссв249550 0.6 101868
27 сентября, пн
пн2700:00+8ссв279487 0.1 1020242
03:00+8ссв3992100 0.1 1022381
06:00+7ссв3994100 0.0 1023429
09:00+8св4994100 0.2 1025549
12:00+10св4783100 0.0 1027788
15:00+11всв3779100 0.1 1028845
18:00+9всв3784100 0.1 1030521
21:00+8в4887100 0.1 1032630